YAOGAN-3 (32289 NORAD) Tracking and Keplerian Element Data

This shows tracking and keplerian element data for the satellite.

Feedback or suggestion? Click here.




ElementValue
Catalog32289
NameYAOGAN-3
Epoch Orbit97921
Epoch Day354.27133616
Epoch Year2025
RAAN20.8291
Inclination97.8357
Eccentricity0.0001156
Argument of Perigee72.5234
Mean Anonmoly287.611
Mean Motion14.89890595
Decay Rate1.363E-05
L11 32289U 07055A 25354.27133616 .00001363 00000+0 14750-3 0 9991
L22 32289 97.8357 20.8291 0001156 72.5234 287.6110 14.89890595979214



Live tracking and technical data element details for YAOGAN-3 (NORAD 32289). YAOGAN-3 can be tracked NOW for your location showing map with azimuth and elevation plus other details from your city location.







IsCatalogInMostPopularTable: catalog: 32289, numindb: 336
Update: records affected: 1



GetName: 32289 YAOGAN-3

Hit Count: updated at: Sun, 19 Apr 2026 08:06:01 GMT